Point Pleasant, WV

3:34 AM EDT on August 22, 2017 (GMT -0400)
Point Pleasant

Weather History for K3I2 - December, 2012

Change the Weather History Date:

Monday, December 17, 2012

  Actual Average (KHTS) Record (KHTS)
Temperature  
Mean Temperature 48 °F -  
Max Temperature 55 °F 43 °F 74 °F (1933)
Min Temperature 41 °F 26 °F -2 °F (1914)
Degree Days  
Heating Degree Days 16    
Moisture  
Dew Point 47 °F    
Average Humidity 88    
Maximum Humidity 100    
Minimum Humidity 77    
Precipitation  
Precipitation 0.00 in - - ()
Sea Level Pressure  
Sea Level Pressure 29.69 in    
Wind  
Wind Speed 2 mph (SSW)    
Max Wind Speed 10 mph    
Max Gust Speed -    
Visibility 9 miles    
Events Rain    
Averages and records for this station are not official NWS values.
T = Trace of Precipitation, MM = Missing Value Source: NWS Daily Summary

Daily Weather History Graph

Daily Weather History Graph

Search for Another Location

Airport or City:

Trip Planner

Search our weather history database for the weather conditions in past years. The results will help you decide how hot, cold, wet, or windy it might be!

Date:

Astronomy

Dec. 17, 2012 Rise Set
Actual Time 7:41 AM EST 5:08 PM EST
Civil Twilight 7:11 AM EST 5:38 PM EST
Nautical Twilight 6:37 AM EST 6:11 PM EST
Astronomical Twilight 6:05 AM EST 6:44 PM EST
Moon 10:51 AM EST (12/17) 10:25 PM EST (12/17)
Length of Visible Light 10h 26m
Length of Day
9h 26m
Waxing Crescent, 24% of the Moon is Illuminated
Dec 17
Waxing Crescent
Dec 20
First Quarter
Dec 28
Full
Jan 4
Last Quarter
Jan 11
New

Hourly Weather History & Observations

Time (EST) Temp. Windchill Dew Point Humidity Pressure Visibility Wind Dir Wind Speed Gust Speed Precip Events Conditions
12:15 AM 53.6 °F - 50.0 °F 88% 29.76 in 10.0 mi South 3.5 mph - N/A   Mostly Cloudy
12:35 AM 55.4 °F - 50.0 °F 82% 29.76 in 10.0 mi SW 3.5 mph - N/A   Mostly Cloudy
12:55 AM 55.4 °F - 50.0 °F 82% 29.76 in 10.0 mi SSW 5.8 mph - N/A   Overcast
1:15 AM 55.4 °F - 48.2 °F 77% 29.76 in 10.0 mi SW 6.9 mph - N/A   Mostly Cloudy
1:55 AM 53.6 °F - 46.4 °F 77% 29.77 in 10.0 mi SSW 4.6 mph - N/A   Overcast
2:15 AM 55.4 °F - 48.2 °F 77% 29.77 in 10.0 mi SW 5.8 mph - N/A   Overcast
2:35 AM 53.6 °F - 46.4 °F 77% 29.77 in 10.0 mi Calm Calm - N/A   Overcast
2:55 AM 51.8 °F - 46.4 °F 82% 29.77 in 10.0 mi Calm Calm - N/A   Mostly Cloudy
3:15 AM 53.6 °F - 46.4 °F 77% 29.77 in 10.0 mi SW 4.6 mph - N/A   Overcast
3:35 AM 53.6 °F - 46.4 °F 77% 29.77 in 10.0 mi SW 3.5 mph - N/A   Overcast
3:55 AM 53.6 °F - 46.4 °F 77% 29.76 in 10.0 mi SW 4.6 mph - N/A   Overcast
4:15 AM 51.8 °F - 46.4 °F 82% 29.76 in 10.0 mi Calm Calm - N/A   Overcast
4:35 AM 50.0 °F - 46.4 °F 87% 29.76 in 10.0 mi Calm Calm - N/A   Overcast
4:55 AM 50.0 °F - 46.4 °F 87% 29.75 in 10.0 mi Calm Calm - N/A   Overcast
5:15 AM 50.0 °F - 46.4 °F 87% 29.75 in 10.0 mi Calm Calm - N/A   Overcast
5:35 AM 50.0 °F - 46.4 °F 87% 29.75 in 10.0 mi Calm Calm - N/A   Overcast
5:55 AM 50.0 °F - 46.4 °F 87% 29.75 in 10.0 mi Calm Calm - N/A   Overcast
6:15 AM 50.0 °F - 46.4 °F 87% 29.76 in 10.0 mi Calm Calm - N/A   Overcast
6:35 AM 50.0 °F - 46.4 °F 87% 29.76 in 10.0 mi Calm Calm - N/A   Overcast
7:15 AM 51.8 °F - 46.4 °F 82% 29.76 in 10.0 mi Calm Calm - N/A   Overcast
7:35 AM 50.0 °F - 46.4 °F 87% 29.76 in 10.0 mi Calm Calm - N/A   Mostly Cloudy
7:55 AM 46.4 °F - 44.6 °F 93% 29.77 in 10.0 mi Calm Calm - N/A   Overcast
8:15 AM 48.2 °F - 46.4 °F 93% 29.77 in 10.0 mi Calm Calm - N/A   Overcast
8:55 AM 51.8 °F - 48.2 °F 88% 29.77 in 10.0 mi Calm Calm - N/A   Overcast
9:15 AM 53.6 °F - 46.4 °F 77% 29.76 in 10.0 mi Calm Calm - N/A   Overcast
9:35 AM 53.6 °F - 48.2 °F 82% 29.74 in 10.0 mi Calm Calm - N/A   Overcast
9:55 AM 53.6 °F - 46.4 °F 77% 29.75 in 10.0 mi Calm Calm - N/A   Overcast
10:15 AM 53.6 °F - 46.4 °F 77% 29.74 in 10.0 mi Calm Calm - N/A   Overcast
10:35 AM 53.6 °F - 46.4 °F 77% 29.73 in 10.0 mi Calm Calm - N/A   Overcast
10:55 AM 53.6 °F - 46.4 °F 77% 29.71 in 10.0 mi Calm Calm - N/A   Overcast
11:15 AM 53.6 °F - 48.2 °F 82% 29.72 in 7.0 mi WSW 6.9 mph - N/A Rain Rain
11:35 AM 51.8 °F - 50.0 °F 94% 29.72 in 2.5 mi SSW 3.5 mph - N/A Rain Rain
11:55 AM 51.8 °F - 50.0 °F 94% 29.71 in 4.0 mi SW 3.5 mph - N/A Rain Rain
12:15 PM 51.8 °F - 50.0 °F 94% 29.69 in 5.0 mi South 3.5 mph - N/A Rain Light Rain
12:35 PM 51.8 °F - 50.0 °F 94% 29.68 in 4.0 mi SSE 3.5 mph - N/A Rain Rain
12:55 PM 51.8 °F - 50.0 °F 94% 29.67 in 5.0 mi Calm Calm - N/A Rain Light Rain
1:15 PM 51.8 °F - 50.0 °F 94% 29.66 in 7.0 mi Calm Calm - N/A Rain Light Rain
1:35 PM 51.8 °F - 50.0 °F 94% 29.65 in 7.0 mi SSW 3.5 mph - N/A Rain Light Rain
1:55 PM 51.8 °F - 50.0 °F 94% 29.64 in 10.0 mi Calm Calm - N/A Rain Light Rain
2:15 PM 51.8 °F - 50.0 °F 94% 29.63 in 10.0 mi Calm Calm - N/A Rain Light Rain
2:35 PM 51.8 °F - 50.0 °F 94% 29.63 in 4.0 mi Calm Calm - N/A Rain Rain
2:55 PM 51.8 °F - 50.0 °F 94% 29.60 in 7.0 mi Calm Calm - N/A Rain Light Rain
3:15 PM 51.8 °F - 50.0 °F 94% 29.61 in 2.0 mi Calm Calm - N/A Rain Heavy Rain
3:35 PM 51.8 °F - 50.0 °F 94% 29.57 in 3.0 mi East 10.4 mph - N/A Rain Light Rain
3:55 PM 51.8 °F - 50.0 °F 94% 29.57 in 10.0 mi Calm Calm - N/A   Overcast
4:15 PM 51.8 °F - 50.0 °F 94% 29.58 in 10.0 mi Calm Calm - N/A   Overcast
4:35 PM 51.8 °F - 50.0 °F 94% 29.58 in 10.0 mi Calm Calm - N/A   Overcast
4:55 PM 51.8 °F - 50.0 °F 94% 29.58 in 10.0 mi Calm Calm - N/A   Mostly Cloudy
7:35 PM 46.4 °F 44.3 °F 44.6 °F 93% 29.63 in 5.0 mi WSW 4.6 mph - N/A Rain Rain
7:55 PM 46.4 °F 45.2 °F 44.6 °F 93% 29.60 in 10.0 mi SSW 3.5 mph - N/A Rain Light Rain
8:15 PM 46.4 °F - 44.6 °F 93% 29.60 in 10.0 mi Calm Calm - N/A   Light Drizzle
8:35 PM 46.4 °F - 44.6 °F 93% 29.59 in 10.0 mi Calm Calm - N/A Rain Light Rain
8:55 PM 44.6 °F - 44.6 °F 100% 29.59 in 10.0 mi Calm Calm - N/A   Scattered Clouds
9:15 PM 44.6 °F 42.2 °F 42.8 °F 93% 29.59 in 10.0 mi SSW 4.6 mph - N/A   Scattered Clouds
9:35 PM 44.6 °F 39.7 °F 42.8 °F 93% 29.59 in 10.0 mi SW 9.2 mph - N/A   Clear
9:55 PM 44.6 °F 40.7 °F 42.8 °F 93% 29.59 in 10.0 mi SW 6.9 mph - N/A   Scattered Clouds
10:15 PM 44.6 °F 40.2 °F 42.8 °F 93% 29.60 in 10.0 mi SW 8.1 mph - N/A   Overcast
10:35 PM 44.6 °F 41.4 °F 42.8 °F 93% 29.59 in 10.0 mi SW 5.8 mph - N/A   Overcast
10:55 PM 44.6 °F 42.2 °F 42.8 °F 93% 29.59 in 10.0 mi SW 4.6 mph - N/A   Mostly Cloudy
11:15 PM 44.6 °F 41.4 °F 42.8 °F 93% 29.60 in 10.0 mi SW 5.8 mph - N/A   Mostly Cloudy
11:35 PM 42.8 °F - 41.0 °F 93% 29.60 in 10.0 mi Calm Calm - N/A   Scattered Clouds
11:55 PM 41.0 °F - 39.2 °F 93% 29.61 in 1.5 mi Calm Calm - N/A   Mist